Location: Quedlinburg
(51.7921°N, 11.1414°E)
Time: 13:54:31
(UTC+02:00)

RS-15 - Pass Details

Date: 15 March 2026
Orbit: 1893 x 2152 km, 64.8° (Epoch: 22 April)

Event Time Altitude Azimuth Distance (km) Brightness Sun altitude
Rises 03:57:55 0° 314° (NW) 5,367 10.2 -23.5°
Reaches altitude 10° 04:01:11 10° 316° (NW) 4,394 9.7 -23.0°
Maximum altitude 04:12:37 78° 43° (NE) 2,075 8.2 -21.5°
Drops below altitude 10° 04:24:37 10° 131° (SE) 4,589 10.3 -19.8°
Sets 04:28:05 0° 133° (SE) 5,614 10.8 -19.3°
